Location: Dumbr?vi?a
(45.8833°N, 22.7000°E)
Time: 17:13:15
(UTC+00:00)

Meteor 2-12 Rocket - Pass Details

Date: 03 March 2021
Orbit: 936 x 956 km, 82.5° (Epoch: 11 April)

Event Time Altitude Azimuth Distance (km) Brightness Sun altitude
Rises 17:05:01 0° 173° (S) 3,584 7.4 -8.9°
Reaches altitude 10° 17:07:31 10° 169° (S) 2,646 6.7 -9.3°
Maximum altitude 17:13:24 56° 93° (E) 1,110 4.5 -10.3°
Drops below altitude 10° 17:19:21 10° 17° (NNE) 2,676 6.7 -11.4°
Sets 17:21:53 0° 13° (NNE) 3,628 7.4 -11.8°
